Find Starlink 1707

NORAD ID: 46359 Int'l Des: 2020-062 Owner: SPXS Country: US Constellation: starlink operational
LEOCIRCULAR

Live Position

Loading 3D Globe...

About Starlink 1707

Description loading...

Upcoming Passes

Passes for default location (London). Set your location on the main map for personalized predictions.

Altitude History

Loading altitude history...

Two-Line Element Set

1 46359U 20062AL 26104.39195492 .00066114 00000-0 49786-3 0 9997
2 46359 53.0206 98.2907 0003306 26.3368 333.7817 15.71922140311346
Epoch: Apr 14, 2026 • Age: 17 hours

Current Status

Altitude 357.2 km
Velocity 7.70 km/s
Sub-Earth Point 41.15°N, 10.22°W
Launch Date Sep 3, 2020
Age 5.6 years
Type internet

Technical Details

Classification Payload
Mass 260.00 kg
Dry Mass 248.00 kg
Total Mass 260.00 kg
Length 0.20 m
Diameter 2.80 m
Span 9.00 m
Shape Box + pan
Manufacturer SPXS
Bus Type Starlink
Phase Status In Orbit
Owner/State SPXS/US

Most Searched